• en France
  • Liste des pays
  • À 7 jours
  • Température de l'eau
  • Carte satellitaire
  • Carte météo
  • Widgets météo
  • user-avatar
    Se connecter

    Météo par heure à Luganka

    Ce jour, 21 Août, Mardi

    Heure Température Précipitation Vent Pression Humidité
    00:00 +19°C° 0 mm 3 m/s 748 mmHg 62%
    01:00 +19°C° 0 mm 3 m/s 748 mmHg 62%
    02:00 +18°C° 0 mm 2 m/s 748 mmHg 66%
    03:00 +18°C° 0 mm 2 m/s 747 mmHg 66%
    04:00 +18°C° 0 mm 3 m/s 747 mmHg 67%
    05:00 +18°C° 0 mm 3 m/s 747 mmHg 67%
    06:00 +20°C° 0 mm 3 m/s 747 mmHg 63%
    07:00 +21°C° 0 mm 4 m/s 747 mmHg 59%
    08:00 +23°C° 0 mm 4 m/s 747 mmHg 55%
    09:00 +26°C° 0 mm 5 m/s 747 mmHg 50%
    10:00 +27°C° 0 mm 6 m/s 746 mmHg 46%
    11:00 +29°C° 0 mm 6 m/s 746 mmHg 41%
    12:00 +29°C° 0 mm 6 m/s 746 mmHg 41%
    13:00 +30°C° 0 mm 7 m/s 745 mmHg 41%
    14:00 +30°C° 0 mm 7 m/s 745 mmHg 41%
    15:00 +29°C° 0,1 mm 6 m/s 744 mmHg 46%
    16:00 +28°C° 0,1 mm 5 m/s 744 mmHg 52%
    17:00 +27°C° 0,1 mm 4 m/s 744 mmHg 57%
    18:00 +26°C° 0,9 mm 4 m/s 744 mmHg 65%
    19:00 +23°C° 0,9 mm 4 m/s 744 mmHg 73%
    20:00 +21°C° 0,9 mm 4 m/s 744 mmHg 81%
    21:00 +20°C° 0,2 mm 4 m/s 744 mmHg 85%
    22:00 +19°C° 0,2 mm 3 m/s 744 mmHg 88%
    23:00 +18°C° 0,2 mm 3 m/s 745 mmHg 91%

    Demain, 22 Août, Mercredi

    Heure Température Précipitation Vent Pression Humidité
    00:00 +18°C° 0 mm 3 m/s 745 mmHg 92%
    01:00 +17°C° 0 mm 3 m/s 745 mmHg 92%
    02:00 +16°C° 0 mm 3 m/s 745 mmHg 92%
    03:00 +16°C° 0 mm 3 m/s 746 mmHg 91%
    04:00 +14°C° 0 mm 3 m/s 746 mmHg 89%
    05:00 +15°C° 0 mm 2 m/s 747 mmHg 87%
    06:00 +16°C° 0 mm 3 m/s 747 mmHg 80%
    07:00 +17°C° 0 mm 3 m/s 748 mmHg 72%
    08:00 +19°C° 0 mm 4 m/s 748 mmHg 65%
    09:00 +19°C° 0 mm 4 m/s 748 mmHg 60%
    10:00 +20°C° 0 mm 5 m/s 749 mmHg 55%
    11:00 +21°C° 0 mm 5 m/s 749 mmHg 49%
    12:00 +21°C° 0 mm 5 m/s 749 mmHg 48%
    13:00 +22°C° 0 mm 5 m/s 749 mmHg 46%
    14:00 +22°C° 0 mm 5 m/s 750 mmHg 44%
    15:00 +21°C° 0 mm 5 m/s 750 mmHg 46%
    16:00 +21°C° 0 mm 4 m/s 750 mmHg 49%
    17:00 +20°C° 0 mm 3 m/s 750 mmHg 52%
    18:00 +19°C° 0 mm 3 m/s 751 mmHg 56%
    19:00 +17°C° 0 mm 3 m/s 751 mmHg 60%
    20:00 +16°C° 0 mm 2 m/s 751 mmHg 64%
    21:00 +15°C° 0 mm 2 m/s 752 mmHg 66%
    22:00 +14°C° 0 mm 2 m/s 752 mmHg 68%
    23:00 +14°C° 0 mm 2 m/s 753 mmHg 70%

    Après-demain, 23 Août, Jeudi

    Heure Température Précipitation Vent Pression Humidité
    00:00 +13°C° 0 mm 2 m/s 753 mmHg 71%
    01:00 +13°C° 0 mm 2 m/s 753 mmHg 73%
    02:00 +12°C° 0 mm 2 m/s 753 mmHg 75%
    03:00 +12°C° 0 mm 2 m/s 753 mmHg 76%
    04:00 +12°C° 0 mm 2 m/s 753 mmHg 77%
    05:00 +12°C° 0 mm 2 m/s 754 mmHg 78%
    06:00 +13°C° 0 mm 2 m/s 754 mmHg 72%
    07:00 +15°C° 0 mm 2 m/s 754 mmHg 66%
    08:00 +17°C° 0 mm 2 m/s 754 mmHg 60%
    09:00 +18°C° 0 mm 2 m/s 754 mmHg 55%
    10:00 +19°C° 0 mm 2 m/s 754 mmHg 50%
    11:00 +21°C° 0 mm 1 m/s 754 mmHg 45%
    12:00 +22°C° 0 mm 1 m/s 754 mmHg 43%
    13:00 +22°C° 0 mm 1 m/s 754 mmHg 41%
    14:00 +23°C° 0 mm 1 m/s 754 mmHg 39%
    15:00 +22°C° 0 mm 1 m/s 754 mmHg 41%
    16:00 +22°C° 0 mm 1 m/s 754 mmHg 43%
    17:00 +22°C° 0 mm 1 m/s 753 mmHg 45%
    18:00 +20°C° 0 mm 1 m/s 753 mmHg 48%
    19:00 +19°C° 0 mm 1 m/s 753 mmHg 51%
    20:00 +16°C° 0 mm 1 m/s 754 mmHg 55%
    21:00 +15°C° 0 mm 1 m/s 754 mmHg 56%
    22:00 +15°C° 0 mm 1 m/s 754 mmHg 58%
    23:00 +14°C° 0 mm 1 m/s 754 mmHg 59%

    24 Août, Vendredi

    Heure Température Précipitation Vent Pression Humidité
    00:00 +14°C° 0 mm 1 m/s 754 mmHg 61%
    01:00 +14°C° 0 mm 1 m/s 754 mmHg 62%
    02:00 +13°C° 0 mm 1 m/s 754 mmHg 64%
    03:00 +13°C° 0 mm 1 m/s 754 mmHg 66%
    04:00 +13°C° 0 mm 1 m/s 754 mmHg 67%
    05:00 +13°C° 0 mm 1 m/s 754 mmHg 69%
    06:00 +15°C° 0 mm 1 m/s 754 mmHg 64%
    07:00 +18°C° 0 mm 1 m/s 753 mmHg 59%
    08:00 +19°C° 0 mm 2 m/s 753 mmHg 54%
    09:00 +20°C° 0 mm 2 m/s 753 mmHg 50%
    10:00 +21°C° 0 mm 2 m/s 753 mmHg 46%
    11:00 +23°C° 0 mm 2 m/s 753 mmHg 42%
    12:00 +24°C° 0 mm 2 m/s 753 mmHg 40%
    13:00 +25°C° 0 mm 2 m/s 752 mmHg 39%
    14:00 +25°C° 0 mm 2 m/s 752 mmHg 37%
    15:00 +25°C° 0 mm 2 m/s 752 mmHg 40%
    16:00 +25°C° 0 mm 1 m/s 752 mmHg 43%
    17:00 +24°C° 0 mm 1 m/s 751 mmHg 46%
    18:00 +23°C° 0 mm 1 m/s 751 mmHg 49%
    19:00 +20°C° 0 mm 2 m/s 751 mmHg 52%
    20:00 +18°C° 0 mm 2 m/s 751 mmHg 54%
    21:00 +17°C° 0 mm 2 m/s 751 mmHg 56%
    22:00 +17°C° 0 mm 2 m/s 751 mmHg 57%
    23:00 +16°C° 0 mm 2 m/s 751 mmHg 59%

    25 Août, Samedi

    Heure Température Précipitation Vent Pression Humidité
    00:00 +16°C° 0 mm 2 m/s 751 mmHg 60%
    01:00 +15°C° 0 mm 2 m/s 751 mmHg 61%
    02:00 +15°C° 0 mm 2 m/s 751 mmHg 62%
    03:00 +15°C° 0 mm 2 m/s 751 mmHg 63%
    04:00 +14°C° 0 mm 2 m/s 751 mmHg 64%
    05:00 +14°C° 0 mm 2 m/s 751 mmHg 65%
    06:00 +16°C° 0 mm 2 m/s 751 mmHg 60%
    07:00 +18°C° 0 mm 3 m/s 751 mmHg 56%
    08:00 +20°C° 0 mm 3 m/s 752 mmHg 52%
    09:00 +21°C° 0 mm 3 m/s 751 mmHg 47%
    10:00 +23°C° 0 mm 4 m/s 751 mmHg 42%
    11:00 +25°C° 0 mm 4 m/s 751 mmHg 38%
    12:00 +25°C° 0 mm 4 m/s 751 mmHg 37%
    13:00 +26°C° 0 mm 4 m/s 751 mmHg 36%
    14:00 +26°C° 0 mm 4 m/s 750 mmHg 36%
    15:00 +26°C° 0 mm 3 m/s 750 mmHg 39%
    16:00 +25°C° 0 mm 3 m/s 750 mmHg 43%
    17:00 +25°C° 0 mm 2 m/s 750 mmHg 46%
    18:00 +23°C° 0 mm 2 m/s 750 mmHg 48%
    19:00 +20°C° 0 mm 2 m/s 750 mmHg 50%
    20:00 +19°C° 0 mm 2 m/s 750 mmHg 52%
    21:00 +18°C° 0 mm 2 m/s 750 mmHg 53%
    22:00 +17°C° 0 mm 2 m/s 750 mmHg 54%
    23:00 +17°C° 0 mm 3 m/s 750 mmHg 55%

    26 Août, Dimanche

    Heure Température Précipitation Vent Pression Humidité
    00:00 +17°C° 0 mm 3 m/s 750 mmHg 57%
    01:00 +16°C° 0 mm 3 m/s 750 mmHg 58%
    02:00 +16°C° 0 mm 3 m/s 750 mmHg 60%
    03:00 +16°C° 0 mm 3 m/s 750 mmHg 62%
    04:00 +14°C° 0 mm 3 m/s 750 mmHg 64%
    05:00 +14°C° 0 mm 3 m/s 750 mmHg 67%
    06:00 +17°C° 0 mm 3 m/s 750 mmHg 63%
    07:00 +19°C° 0 mm 4 m/s 750 mmHg 59%
    08:00 +21°C° 0 mm 4 m/s 750 mmHg 55%
    09:00 +23°C° 0 mm 4 m/s 750 mmHg 50%
    10:00 +26°C° 0 mm 5 m/s 750 mmHg 46%
    11:00 +27°C° 0 mm 5 m/s 750 mmHg 41%
    12:00 +28°C° 0 mm 5 m/s 750 mmHg 40%
    13:00 +28°C° 0 mm 5 m/s 749 mmHg 39%
    14:00 +28°C° 0 mm 5 m/s 749 mmHg 38%
    15:00 +28°C° 0 mm 4 m/s 749 mmHg 42%
    16:00 +27°C° 0 mm 4 m/s 749 mmHg 46%
    17:00 +26°C° 0 mm 3 m/s 749 mmHg 50%
    18:00 +25°C° 0 mm 3 m/s 749 mmHg 54%
    19:00 +22°C° 0 mm 3 m/s 749 mmHg 58%
    20:00 +21°C° 0 mm 3 m/s 749 mmHg 62%
    21:00 +20°C° 0 mm 3 m/s 749 mmHg 64%
    22:00 +20°C° 0 mm 4 m/s 749 mmHg 67%
    23:00 +19°C° 0 mm 4 m/s 749 mmHg 69%
    Voir plus